Change the Weather History Date:

Monday, January 21, 2013

  Actual Average Record
Temperature  
Mean Temperature 1 °F -  
Max Temperature 5 °F 24 °F 39 °F (2002)
Min Temperature -4 °F 0 °F -13 °F (2003)
Degree Days  
Heating Degree Days 64    
Cooling Degree Days 0    
Moisture  
Dew Point -4 °F    
Average Humidity 75    
Maximum Humidity 85    
Minimum Humidity 59    
Precipitation  
Precipitation 0.02 in 0.01 in 0.02 in (1999)
Month to date precipitation 0.09 0.25  
Year to date precipitation 0.09 0.25  
Sea Level Pressure  
Sea Level Pressure 30.35 in    
Wind  
Wind Speed 6 mph (ENE)    
Max Wind Speed 12 mph    
Max Gust Speed -    
Visibility 5 miles    
Events Snow    
T = Trace of Precipitation, MM = Missing Value Source: NWS Daily Summary

Daily Weather History Graph

Daily Weather History Graph

Search for Another Location

Airport or City:

Trip Planner

Search our weather history database for the weather conditions in past years. The results will help you decide how hot, cold, wet, or windy it might be!

Date:

Astronomy

Jan. 21, 2013 Rise Set
Actual Time 7:42 AM MST 4:45 PM MST
Civil Twilight 7:07 AM MST 5:20 PM MST
Nautical Twilight 6:29 AM MST 5:58 PM MST
Astronomical Twilight 5:52 AM MST 6:35 PM MST
Moon 12:25 PM MST (1/21) 3:14 AM MST (1/21)
Length of Visible Light 10h 12m
Length of Day
9h 03m
Waxing Gibbous, 75% of the Moon is Illuminated
Jan 21
Waxing Gibbous
Jan 26
Full
Feb 3
Last Quarter
Feb 10
New
Feb 17
First Quarter

Hourly Weather History & Observations

Time (MST) Temp. Windchill Dew Point Humidity Pressure Visibility Wind Dir Wind Speed Gust Speed Precip Events Conditions
12:53 AM -4.0 °F -22.1 °F -14.1 °F 62% 30.61 in 10.0 mi WNW 11.5 mph - N/A   Overcast
1:53 AM -2.9 °F -18.8 °F -14.1 °F 59% 30.59 in 10.0 mi NW 9.2 mph - N/A   Overcast
2:53 AM -2.9 °F - -13.0 °F 62% 30.58 in 10.0 mi Calm Calm - N/A   Overcast
3:53 AM -2.9 °F -11.2 °F -11.9 °F 65% 30.57 in 10.0 mi NW 3.5 mph - N/A   Overcast
4:53 AM -2.0 °F -13.9 °F -11.0 °F 66% 30.57 in 10.0 mi West 5.8 mph - N/A   Overcast
5:53 AM -2.9 °F - -11.0 °F 68% 30.56 in 10.0 mi Calm Calm - N/A   Mostly Cloudy
6:53 AM -2.0 °F - -9.9 °F 69% 30.54 in 10.0 mi Calm Calm - N/A   Mostly Cloudy
7:53 AM -0.9 °F - -9.9 °F 66% 30.54 in 10.0 mi Calm Calm - N/A   Overcast
8:53 AM -0.0 °F - -9.0 °F 66% 30.53 in 10.0 mi Calm Calm - N/A   Overcast
9:53 AM -0.0 °F -9.9 °F -9.0 °F 66% 30.53 in 10.0 mi West 4.6 mph - N/A   Mostly Cloudy
10:53 AM 1.0 °F - -8.0 °F 66% 30.51 in 10.0 mi Calm Calm - N/A   Overcast
11:53 AM 1.9 °F -7.6 °F -7.1 °F 66% 30.47 in 10.0 mi West 4.6 mph - N/A   Overcast
12:53 PM 3.0 °F - -7.1 °F 63% 30.44 in 10.0 mi Calm Calm - N/A   Overcast
1:53 PM 3.9 °F - -6.0 °F 64% 30.41 in 10.0 mi Calm Calm - N/A   Overcast
2:53 PM 3.9 °F - -7.1 °F 60% 30.40 in 10.0 mi Calm Calm - N/A   Overcast
3:53 PM 3.9 °F - -6.0 °F 64% 30.39 in 9.0 mi Calm Calm - N/A   Overcast
4:53 PM 3.9 °F -8.2 °F -4.0 °F 70% 30.38 in 4.0 mi East 6.9 mph - 0.00 in Snow Light Snow
5:53 PM 3.0 °F -9.3 °F -2.9 °F 76% 30.38 in 4.0 mi ENE 6.9 mph - 0.00 in Snow Light Snow
6:28 PM 3.2 °F -9.1 °F -2.2 °F 78% 30.20 in 2.5 mi East 6.9 mph - 0.00 in Snow Light Snow
6:39 PM 3.2 °F -7.8 °F -2.2 °F 78% 30.20 in 1.0 mi East 5.8 mph - 0.00 in Snow Light Snow
6:48 PM 3.2 °F -9.1 °F -2.2 °F 78% 30.20 in 0.8 mi East 6.9 mph - 0.00 in Snow Light Snow
6:53 PM 3.0 °F -9.3 °F -2.0 °F 80% 30.36 in 1.0 mi East 6.9 mph - 0.00 in Snow Light Snow
7:04 PM 3.2 °F -9.1 °F -0.4 °F 85% 30.20 in 1.5 mi East 6.9 mph - 0.00 in Snow Light Snow
7:29 PM 3.2 °F -9.1 °F -2.2 °F 78% 30.20 in 0.8 mi East 6.9 mph - 0.01 in Snow Light Snow
7:38 PM 3.2 °F -7.8 °F -0.4 °F 85% 30.21 in 0.8 mi East 5.8 mph - 0.01 in Snow Light Snow
7:43 PM 3.2 °F -9.1 °F -0.4 °F 85% 30.21 in 1.0 mi ENE 6.9 mph - 0.01 in Snow Light Snow
7:53 PM 3.0 °F -10.5 °F -0.9 °F 84% 30.36 in 1.5 mi East 8.1 mph - 0.01 in Snow Light Snow
8:03 PM 3.2 °F -10.3 °F -0.4 °F 85% 30.20 in 2.0 mi East 8.1 mph - 0.00 in Snow Light Snow
8:20 PM 3.2 °F -10.3 °F -0.4 °F 85% 30.20 in 3.0 mi East 8.1 mph - 0.00 in Snow Light Snow
8:53 PM 3.0 °F -9.3 °F -0.9 °F 84% 30.35 in 2.0 mi ENE 6.9 mph - 0.01 in Snow Light Snow
9:04 PM 3.2 °F -9.1 °F -0.4 °F 85% 30.19 in 1.5 mi ENE 6.9 mph - 0.00 in Snow Light Snow
9:12 PM 3.2 °F -10.3 °F -0.4 °F 85% 30.18 in 1.2 mi ENE 8.1 mph - 0.00 in Snow Light Snow
9:27 PM 3.2 °F -7.8 °F -0.4 °F 85% 30.18 in 1.0 mi ENE 5.8 mph - 0.00 in Snow Light Snow
9:38 PM 3.2 °F -10.3 °F -0.4 °F 85% 30.17 in 1.2 mi East 8.1 mph - 0.00 in Snow Light Snow
9:53 PM 3.0 °F -10.5 °F -0.9 °F 84% 30.33 in 1.8 mi ENE 8.1 mph - 0.00 in Snow Light Snow
10:08 PM 3.2 °F -9.1 °F -0.4 °F 85% 30.18 in 1.8 mi ENE 6.9 mph - 0.00 in Snow Light Snow
10:17 PM 3.2 °F -9.1 °F -0.4 °F 85% 30.17 in 1.5 mi ENE 6.9 mph - 0.00 in Snow Light Snow
10:22 PM 3.2 °F -9.1 °F -0.4 °F 85% 30.17 in 2.0 mi ENE 6.9 mph - 0.00 in Snow Light Snow
10:40 PM 3.2 °F -11.3 °F -0.4 °F 85% 30.16 in 4.0 mi ENE 9.2 mph - 0.00 in Snow Light Snow
10:53 PM 3.0 °F -11.5 °F -0.9 °F 84% 30.33 in 6.0 mi ENE 9.2 mph - 0.00 in   Overcast
11:53 PM 3.0 °F -10.5 °F -0.9 °F 84% 30.30 in 10.0 mi ENE 8.1 mph - N/A   Overcast